Volver al catálogo

AAC-AIS-SAT2

ActivoCienciaSSO
NORAD 56996·PAYLOAD·🇬🇧 United Kingdom

Lanzado Jun 12, 2023 desde Vandenberg Space Force Base

Loading…

Próximos Pases (próximas 24 horas)

TLE

ActualizadoSource: Space-Track

Época: Sep 14, 2026, 22:32 UTC

1 56996U 23084BY  26257.93904716  .00003071  00000-0  34904-3 0  9997
2 56996  98.1616  40.0175 0056814 164.9002 195.3925 14.85886266166709

Sigue AAC-AIS-SAT2 en tiempo real con AllMySat

Download on the App Store